Time,TemperatureF,DewpointF,PressureIn,WindDirection,WindDirectionDegrees,WindSpeedMPH,WindSpeedGustMPH,Humidity,HourlyPrecipIn,Conditions,Clouds,dailyrainin,SoftwareType,DateUTC
2015-05-26 00:02:00,54.5,51.6,30.01,SSW,193,0.0,0.0,90,0.00,,,0.00,Wunderground v.1.15,2015-05-26 07:02:00,
2015-05-26 00:08:00,54.5,51.6,30.01,SSW,193,0.0,0.0,90,0.00,,,0.00,Wunderground v.1.15,2015-05-26 07:08:00,
2015-05-26 00:16:00,54.6,51.7,30.01,SSW,193,0.0,0.0,90,0.00,,,0.00,Wunderground v.1.15,2015-05-26 07:16:00,
2015-05-26 00:22:00,54.7,51.8,30.01,SSW,193,0.0,0.0,90,0.00,,,0.00,Wunderground v.1.15,2015-05-26 07:22:00,
2015-05-26 00:28:00,54.7,51.5,30.01,SSW,193,0.0,0.0,89,0.00,,,0.00,Wunderground v.1.15,2015-05-26 07:28:00,
2015-05-26 00:36:00,54.7,51.5,30.01,SSW,193,0.0,0.0,89,0.00,,,0.00,Wunderground v.1.15,2015-05-26 07:36:00,
2015-05-26 00:42:00,54.7,51.5,30.01,SSW,193,0.0,0.0,89,0.00,,,0.00,Wunderground v.1.15,2015-05-26 07:42:00,
2015-05-26 00:48:00,54.7,51.5,30.01,SSW,193,0.0,0.0,89,0.00,,,0.00,Wunderground v.1.15,2015-05-26 07:48:00,
2015-05-26 00:56:00,55.0,52.1,30.01,SE,126,0.0,0.0,90,0.00,,,0.00,Wunderground v.1.15,2015-05-26 07:56:00,
2015-05-26 01:02:00,55.1,52.2,30.01,SE,125,0.0,0.0,90,0.00,,,0.00,Wunderground v.1.15,2015-05-26 08:02:00,
2015-05-26 01:08:00,55.2,52.3,30.01,SE,140,0.0,0.0,90,0.00,,,0.00,Wunderground v.1.15,2015-05-26 08:08:00,
2015-05-26 01:16:00,55.3,52.1,30.01,SE,142,0.0,0.0,89,0.00,,,0.00,Wunderground v.1.15,2015-05-26 08:16:00,
2015-05-26 01:22:00,55.4,52.2,30.01,WSW,257,0.0,0.0,89,0.00,,,0.00,Wunderground v.1.15,2015-05-26 08:22:00,
2015-05-26 01:28:00,55.4,52.2,30.02,WSW,257,0.0,0.0,89,0.00,,,0.00,Wunderground v.1.15,2015-05-26 08:28:00,
2015-05-26 01:34:00,55.4,52.2,30.02,WSW,257,0.0,0.0,89,0.00,,,0.00,Wunderground v.1.15,2015-05-26 08:34:00,
2015-05-26 01:40:00,55.4,52.2,30.02,WSW,257,0.0,0.0,89,0.00,,,0.00,Wunderground v.1.15,2015-05-26 08:40:00,
2015-05-26 01:46:00,55.4,52.2,30.02,WSW,257,0.0,0.0,89,0.00,,,0.00,Wunderground v.1.15,2015-05-26 08:46:00,
2015-05-26 01:52:00,55.4,52.2,30.01,WSW,257,0.0,0.0,89,0.00,,,0.00,Wunderground v.1.15,2015-05-26 08:52:00,
2015-05-26 01:58:00,55.4,52.5,30.02,WSW,257,0.0,0.0,90,0.00,,,0.00,Wunderground v.1.15,2015-05-26 08:58:00,
2015-05-26 02:06:00,55.4,52.5,30.02,WSW,257,0.0,0.0,90,0.00,,,0.00,Wunderground v.1.15,2015-05-26 09:06:00,
2015-05-26 02:12:00,55.3,52.4,30.02,WSW,257,0.0,0.0,90,0.00,,,0.00,Wunderground v.1.15,2015-05-26 09:12:00,
2015-05-26 02:18:00,55.2,52.3,30.02,WSW,257,0.0,0.0,90,0.00,,,0.00,Wunderground v.1.15,2015-05-26 09:18:00,
2015-05-26 02:26:00,55.1,52.5,30.02,WSW,257,0.0,0.0,91,0.00,,,0.00,Wunderground v.1.15,2015-05-26 09:26:00,
2015-05-26 02:32:00,55.1,52.5,30.02,WSW,257,0.0,0.0,91,0.00,,,0.00,Wunderground v.1.15,2015-05-26 09:32:00,
2015-05-26 02:38:00,54.9,52.3,30.02,NW,307,0.0,0.0,91,0.00,,,0.00,Wunderground v.1.15,2015-05-26 09:38:00,
2015-05-26 02:46:00,54.8,52.2,30.02,NW,307,0.0,0.0,91,0.00,,,0.00,Wunderground v.1.15,2015-05-26 09:46:00,
2015-05-26 02:52:00,54.7,52.1,30.02,NW,322,0.0,0.0,91,0.00,,,0.00,Wunderground v.1.15,2015-05-26 09:52:00,
2015-05-26 02:58:00,54.6,52.0,30.02,NW,316,0.0,0.0,91,0.00,,,0.00,Wunderground v.1.15,2015-05-26 09:58:00,
2015-05-26 03:06:00,54.5,51.9,30.02,NW,314,0.0,0.0,91,0.00,,,0.00,Wunderground v.1.15,2015-05-26 10:06:00,
2015-05-26 03:12:00,54.5,51.9,30.02,NW,318,0.0,0.0,91,0.00,,,0.00,Wunderground v.1.15,2015-05-26 10:12:00,
2015-05-26 03:18:00,54.3,51.7,30.02,NNW,329,0.0,0.0,91,0.00,,,0.00,Wunderground v.1.15,2015-05-26 10:18:00,
2015-05-26 03:24:00,54.1,51.5,30.02,NNW,328,0.0,0.0,91,0.00,,,0.00,Wunderground v.1.15,2015-05-26 10:24:00,
2015-05-26 03:30:00,53.9,51.6,30.02,NW,322,0.0,0.0,92,0.00,,,0.00,Wunderground v.1.15,2015-05-26 10:30:00,
2015-05-26 03:36:00,53.8,51.5,30.02,NW,311,0.0,1.0,92,0.00,,,0.00,Wunderground v.1.15,2015-05-26 10:36:00,
2015-05-26 03:43:00,53.7,51.4,30.02,NNW,330,0.0,0.0,92,0.00,,,0.00,Wunderground v.1.15,2015-05-26 10:43:00,
2015-05-26 03:50:00,53.7,51.4,30.02,NW,314,1.0,1.0,92,0.00,,,0.00,Wunderground v.1.15,2015-05-26 10:50:00,
2015-05-26 03:56:00,53.6,51.3,30.02,NW,324,0.0,2.0,92,0.00,,,0.00,Wunderground v.1.15,2015-05-26 10:56:00,
2015-05-26 04:03:00,53.5,51.2,30.02,NW,321,0.0,0.0,92,0.00,,,0.00,Wunderground v.1.15,2015-05-26 11:03:00,
2015-05-26 04:10:00,53.6,51.3,30.02,NE,47,0.0,1.0,92,0.00,,,0.00,Wunderground v.1.15,2015-05-26 11:10:00,
2015-05-26 04:16:00,53.6,51.3,30.02,ENE,58,0.0,0.0,92,0.00,,,0.00,Wunderground v.1.15,2015-05-26 11:16:00,
2015-05-26 04:22:00,53.6,51.3,30.02,ENE,67,0.0,0.0,92,0.00,,,0.00,Wunderground v.1.15,2015-05-26 11:22:00,
2015-05-26 04:27:00,53.5,51.2,30.02,ENE,66,0.0,0.0,92,0.00,,,0.00,Wunderground v.1.15,2015-05-26 11:27:00,
2015-05-26 04:36:00,53.4,51.4,30.02,ENE,59,0.0,0.0,93,0.00,,,0.00,Wunderground v.1.15,2015-05-26 11:36:00,
2015-05-26 04:42:00,53.4,51.4,30.02,ENE,60,0.0,0.0,93,0.00,,,0.00,Wunderground v.1.15,2015-05-26 11:42:00,
2015-05-26 04:48:00,53.3,51.3,30.02,North,356,0.0,0.0,93,0.00,,,0.00,Wunderground v.1.15,2015-05-26 11:48:00,
2015-05-26 04:56:00,53.2,51.2,30.03,North,356,0.0,0.0,93,0.00,,,0.00,Wunderground v.1.15,2015-05-26 11:56:00,
2015-05-26 05:02:00,53.2,51.2,30.03,NNE,32,0.0,0.0,93,0.00,,,0.00,Wunderground v.1.15,2015-05-26 12:02:00,
2015-05-26 05:08:00,53.2,51.2,30.03,NNE,33,0.0,0.0,93,0.00,,,0.00,Wunderground v.1.15,2015-05-26 12:08:00,
2015-05-26 05:14:00,53.1,51.1,30.03,NNE,32,0.0,0.0,93,0.00,,,0.00,Wunderground v.1.15,2015-05-26 12:14:00,
2015-05-26 05:20:00,53.1,51.1,30.03,NNE,33,0.0,0.0,93,0.00,,,0.00,Wunderground v.1.15,2015-05-26 12:20:00,
2015-05-26 05:25:00,53.1,51.1,30.03,NNE,33,0.0,0.0,93,0.00,,,0.00,Wunderground v.1.15,2015-05-26 12:25:00,
2015-05-26 05:32:00,53.1,51.1,30.03,NNE,33,0.0,0.0,93,0.00,,,0.00,Wunderground v.1.15,2015-05-26 12:32:00,
2015-05-26 05:38:00,53.1,51.1,30.03,NNE,33,0.0,0.0,93,0.00,,,0.00,Wunderground v.1.15,2015-05-26 12:38:00,
2015-05-26 05:44:00,53.1,51.1,30.03,NNE,32,0.0,0.0,93,0.00,,,0.00,Wunderground v.1.15,2015-05-26 12:44:00,
2015-05-26 05:50:00,53.1,51.4,30.03,NNE,20,0.0,0.0,94,0.00,,,0.00,Wunderground v.1.15,2015-05-26 12:50:00,
2015-05-26 05:56:00,53.2,51.5,30.03,NNE,20,0.0,0.0,94,0.00,,,0.00,Wunderground v.1.15,2015-05-26 12:56:00,
2015-05-26 06:01:00,53.3,51.6,30.03,NNE,20,0.0,0.0,94,0.00,,,0.00,Wunderground v.1.15,2015-05-26 13:01:00,
2015-05-26 06:08:00,53.4,51.7,30.03,NNE,20,0.0,0.0,94,0.00,,,0.00,Wunderground v.1.15,2015-05-26 13:08:00,
2015-05-26 06:14:00,53.4,51.4,30.04,NNE,20,0.0,0.0,93,0.00,,,0.00,Wunderground v.1.15,2015-05-26 13:14:00,
2015-05-26 06:20:00,53.5,51.5,30.04,NW,325,0.0,0.0,93,0.00,,,0.00,Wunderground v.1.15,2015-05-26 13:20:00,
2015-05-26 06:26:00,53.6,51.6,30.04,NW,325,0.0,0.0,93,0.00,,,0.00,Wunderground v.1.15,2015-05-26 13:26:00,
2015-05-26 06:32:00,53.6,51.6,30.04,NW,324,0.0,0.0,93,0.00,,,0.00,Wunderground v.1.15,2015-05-26 13:32:00,
2015-05-26 06:38:00,53.7,51.7,30.04,NW,322,0.0,0.0,93,0.00,,,0.00,Wunderground v.1.15,2015-05-26 13:38:00,
2015-05-26 06:46:00,53.8,51.8,30.04,NW,322,0.0,0.0,93,0.00,,,0.00,Wunderground v.1.15,2015-05-26 13:46:00,
2015-05-26 06:52:00,53.9,51.9,30.04,NW,320,0.0,0.0,93,0.00,,,0.00,Wunderground v.1.15,2015-05-26 13:52:00,
2015-05-26 06:58:00,54.1,51.8,30.04,NW,321,0.0,0.0,92,0.00,,,0.00,Wunderground v.1.15,2015-05-26 13:58:00,
2015-05-26 07:06:00,54.3,51.7,30.04,North,4,0.0,0.0,91,0.00,,,0.00,Wunderground v.1.15,2015-05-26 14:06:00,
2015-05-26 07:12:00,54.5,51.9,30.04,NW,313,0.0,0.0,91,0.00,,,0.00,Wunderground v.1.15,2015-05-26 14:12:00,
2015-05-26 07:18:00,54.6,52.0,30.04,NW,315,0.0,0.0,91,0.00,,,0.00,Wunderground v.1.15,2015-05-26 14:18:00,
2015-05-26 07:24:00,54.8,52.2,30.04,NE,49,0.0,0.0,91,0.00,,,0.00,Wunderground v.1.15,2015-05-26 14:24:00,
2015-05-26 07:30:00,55.0,52.4,30.04,NNE,32,0.0,0.0,91,0.00,,,0.00,Wunderground v.1.15,2015-05-26 14:30:00,
2015-05-26 07:36:00,55.1,52.2,30.04,NW,315,0.0,1.0,90,0.00,,,0.00,Wunderground v.1.15,2015-05-26 14:36:00,
2015-05-26 07:42:00,55.1,52.2,30.05,NW,307,0.0,0.0,90,0.00,,,0.00,Wunderground v.1.15,2015-05-26 14:42:00,
2015-05-26 07:48:00,55.5,52.6,30.05,NW,307,0.0,0.0,90,0.00,,,0.00,Wunderground v.1.15,2015-05-26 14:48:00,
2015-05-26 07:56:00,55.6,52.4,30.05,NW,325,0.0,0.0,89,0.00,,,0.00,Wunderground v.1.15,2015-05-26 14:56:00,
2015-05-26 08:02:00,55.8,52.6,30.05,East,88,0.0,0.0,89,0.00,,,0.00,Wunderground v.1.15,2015-05-26 15:02:00,
2015-05-26 08:08:00,56.1,52.6,30.05,NW,316,0.0,0.0,88,0.00,,,0.00,Wunderground v.1.15,2015-05-26 15:08:00,
2015-05-26 08:16:00,56.3,52.8,30.05,NE,47,0.0,0.0,88,0.00,,,0.00,Wunderground v.1.15,2015-05-26 15:16:00,
2015-05-26 08:22:00,56.5,53.0,30.05,ENE,65,0.0,0.0,88,0.00,,,0.00,Wunderground v.1.15,2015-05-26 15:22:00,
2015-05-26 08:28:00,56.9,53.1,30.05,North,6,0.0,0.0,87,0.00,,,0.00,Wunderground v.1.15,2015-05-26 15:28:00,
2015-05-26 08:34:00,57.4,53.6,30.05,NNE,32,0.0,0.0,87,0.00,,,0.00,Wunderground v.1.15,2015-05-26 15:34:00,
2015-05-26 08:40:00,57.7,53.2,30.05,ESE,123,0.0,0.0,85,0.00,,,0.00,Wunderground v.1.15,2015-05-26 15:40:00,
2015-05-26 08:46:00,58.1,53.6,30.04,NNE,29,0.0,0.0,85,0.00,,,0.00,Wunderground v.1.15,2015-05-26 15:46:00,
2015-05-26 08:52:00,58.3,54.1,30.04,NE,46,0.0,0.0,86,0.00,,,0.00,Wunderground v.1.15,2015-05-26 15:52:00,
2015-05-26 08:57:00,58.8,54.0,30.04,NW,324,0.0,1.0,84,0.00,,,0.00,Wunderground v.1.15,2015-05-26 15:57:00,
2015-05-26 09:06:00,58.3,53.5,30.04,West,274,1.0,1.0,84,0.00,,,0.00,Wunderground v.1.15,2015-05-26 16:06:00,
2015-05-26 09:12:00,58.4,53.6,30.05,NW,313,0.0,1.0,84,0.00,,,0.00,Wunderground v.1.15,2015-05-26 16:12:00,
2015-05-26 09:18:00,58.6,53.8,30.05,NNW,344,0.0,1.0,84,0.00,,,0.00,Wunderground v.1.15,2015-05-26 16:18:00,
2015-05-26 09:26:00,58.9,53.7,30.04,West,281,0.0,1.0,83,0.00,,,0.00,Wunderground v.1.15,2015-05-26 16:26:00,
2015-05-26 09:32:00,59.1,53.9,30.04,West,278,1.0,1.0,83,0.00,,,0.00,Wunderground v.1.15,2015-05-26 16:32:00,
2015-05-26 09:38:00,59.4,54.2,30.04,West,270,0.0,1.0,83,0.00,,,0.00,Wunderground v.1.15,2015-05-26 16:38:00,
2015-05-26 09:46:00,59.9,54.1,30.04,SE,129,0.0,0.0,81,0.00,,,0.00,Wunderground v.1.15,2015-05-26 16:46:00,
2015-05-26 09:52:00,60.3,54.1,30.04,NW,318,0.0,2.0,80,0.00,,,0.00,Wunderground v.1.15,2015-05-26 16:52:00,
2015-05-26 09:58:00,60.4,54.5,30.04,East,85,0.0,2.0,81,0.00,,,0.00,Wunderground v.1.15,2015-05-26 16:58:00,
2015-05-26 10:05:00,60.4,54.2,30.04,NW,308,0.0,2.0,80,0.00,,,0.00,Wunderground v.1.15,2015-05-26 17:05:00,
2015-05-26 10:11:00,60.5,54.0,30.04,NW,319,1.0,2.0,79,0.00,,,0.00,Wunderground v.1.15,2015-05-26 17:11:00,
2015-05-26 10:18:00,60.8,54.2,30.04,SW,227,1.0,2.0,79,0.00,,,0.00,Wunderground v.1.15,2015-05-26 17:18:00,
2015-05-26 10:24:00,60.8,53.9,30.04,West,274,1.0,3.0,78,0.00,,,0.00,Wunderground v.1.15,2015-05-26 17:24:00,
2015-05-26 10:30:00,60.4,53.9,30.04,WNW,295,2.0,2.0,79,0.00,,,0.00,Wunderground v.1.15,2015-05-26 17:30:00,
2015-05-26 10:36:00,60.5,54.6,30.05,West,274,1.0,2.0,81,0.00,,,0.00,Wunderground v.1.15,2015-05-26 17:36:00,
2015-05-26 10:42:00,60.2,54.7,30.05,WNW,294,2.0,4.0,82,0.00,,,0.00,Wunderground v.1.15,2015-05-26 17:42:00,
2015-05-26 10:48:00,60.1,54.9,30.04,West,262,2.0,4.0,83,0.00,,,0.00,Wunderground v.1.15,2015-05-26 17:48:00,
2015-05-26 10:56:00,60.4,54.5,30.04,West,263,2.0,4.0,81,0.00,,,0.00,Wunderground v.1.15,2015-05-26 17:56:00,
2015-05-26 11:08:00,61.1,55.2,30.04,WNW,298,2.0,4.0,81,0.00,,,0.00,Wunderground v.1.15,2015-05-26 18:08:00,
2015-05-26 11:16:00,61.3,54.7,30.04,East,96,3.0,3.0,79,0.00,,,0.00,Wunderground v.1.15,2015-05-26 18:16:00,
2015-05-26 11:21:00,62.0,55.1,30.04,SW,235,2.0,2.0,78,0.00,,,0.00,Wunderground v.1.15,2015-05-26 18:21:00,
2015-05-26 11:28:00,62.5,55.5,30.04,NNE,25,1.0,4.0,78,0.00,,,0.00,Wunderground v.1.15,2015-05-26 18:28:00,
2015-05-26 11:34:00,63.2,55.1,30.04,WSW,255,1.0,1.0,75,0.00,,,0.00,Wunderground v.1.15,2015-05-26 18:34:00,
2015-05-26 11:40:00,63.0,55.3,30.04,WSW,257,2.0,5.0,76,0.00,,,0.00,Wunderground v.1.15,2015-05-26 18:40:00,
2015-05-26 11:46:00,62.6,54.9,30.04,NNW,333,3.0,5.0,76,0.00,,,0.00,Wunderground v.1.15,2015-05-26 18:46:00,
2015-05-26 11:52:00,62.4,54.7,30.04,NNW,328,2.0,2.0,76,0.00,,,0.00,Wunderground v.1.15,2015-05-26 18:52:00,
2015-05-26 11:58:00,62.5,54.8,30.04,West,259,2.0,2.0,76,0.00,,,0.00,Wunderground v.1.15,2015-05-26 18:58:00,
2015-05-26 12:06:00,63.2,54.8,30.04,WSW,249,2.0,4.0,74,0.00,,,0.00,Wunderground v.1.15,2015-05-26 19:06:00,
2015-05-26 12:12:00,63.8,55.4,30.04,WSW,249,2.0,2.0,74,0.00,,,0.00,Wunderground v.1.15,2015-05-26 19:12:00,
2015-05-26 12:18:00,64.6,55.7,30.04,NW,312,1.0,2.0,73,0.00,,,0.00,Wunderground v.1.15,2015-05-26 19:18:00,
2015-05-26 12:26:00,64.7,55.8,30.04,NW,326,1.0,4.0,73,0.00,,,0.00,Wunderground v.1.15,2015-05-26 19:26:00,
2015-05-26 12:31:00,63.7,55.3,30.04,West,269,3.0,5.0,74,0.00,,,0.00,Wunderground v.1.15,2015-05-26 19:31:00,
2015-05-26 12:38:00,63.5,55.1,30.04,WNW,297,3.0,5.0,74,0.00,,,0.00,Wunderground v.1.15,2015-05-26 19:38:00,
2015-05-26 12:46:00,63.4,55.3,30.04,South,187,1.0,2.0,75,0.00,,,0.00,Wunderground v.1.15,2015-05-26 19:46:00,
2015-05-26 12:52:00,63.9,55.4,30.03,West,274,1.0,1.0,74,0.00,,,0.00,Wunderground v.1.15,2015-05-26 19:52:00,
2015-05-26 12:58:00,64.5,55.3,30.03,WNW,285,1.0,3.0,72,0.00,,,0.00,Wunderground v.1.15,2015-05-26 19:58:00,
2015-05-26 13:06:00,64.8,55.6,30.03,ESE,110,1.0,2.0,72,0.00,,,0.00,Wunderground v.1.15,2015-05-26 20:06:00,
2015-05-26 13:12:00,65.6,55.9,30.03,ENE,62,0.0,0.0,71,0.00,,,0.00,Wunderground v.1.15,2015-05-26 20:12:00,
2015-05-26 13:18:00,66.4,56.3,30.03,NNW,336,0.0,0.0,70,0.00,,,0.00,Wunderground v.1.15,2015-05-26 20:18:00,
2015-05-26 13:26:00,66.4,55.5,30.03,SW,215,1.0,2.0,68,0.00,,,0.00,Wunderground v.1.15,2015-05-26 20:26:00,
2015-05-26 13:31:00,65.7,55.2,30.03,SW,215,1.0,1.0,69,0.00,,,0.00,Wunderground v.1.15,2015-05-26 20:31:00,
2015-05-26 13:38:00,66.3,55.8,30.03,NW,325,0.0,1.0,69,0.00,,,0.00,Wunderground v.1.15,2015-05-26 20:38:00,
2015-05-26 13:46:00,66.7,55.4,30.03,WNW,295,0.0,1.0,67,0.00,,,0.00,Wunderground v.1.15,2015-05-26 20:46:00,
2015-05-26 13:51:00,66.5,55.6,30.03,South,184,0.0,2.0,68,0.00,,,0.00,Wunderground v.1.15,2015-05-26 20:51:00,
2015-05-26 13:58:00,66.4,55.5,30.03,NW,312,1.0,2.0,68,0.00,,,0.00,Wunderground v.1.15,2015-05-26 20:58:00,
2015-05-26 14:05:00,66.1,55.2,30.03,SW,221,1.0,2.0,68,0.00,,,0.00,Wunderground v.1.15,2015-05-26 21:05:00,
2015-05-26 14:12:00,65.8,54.9,30.03,SE,141,2.0,2.0,68,0.00,,,0.00,Wunderground v.1.15,2015-05-26 21:12:00,
2015-05-26 14:18:00,65.6,55.2,30.03,WSW,256,2.0,5.0,69,0.00,,,0.00,Wunderground v.1.15,2015-05-26 21:18:00,
2015-05-26 14:26:00,65.5,55.8,30.02,WNW,293,1.0,2.0,71,0.00,,,0.00,Wunderground v.1.15,2015-05-26 21:26:00,
2015-05-26 14:32:00,65.4,55.7,30.03,WSW,256,1.0,1.0,71,0.00,,,0.00,Wunderground v.1.15,2015-05-26 21:32:00,
2015-05-26 14:37:00,65.1,55.5,30.02,WSW,256,1.0,1.0,71,0.00,,,0.00,Wunderground v.1.15,2015-05-26 21:37:00,
2015-05-26 14:46:00,65.0,55.4,30.02,WSW,238,2.0,2.0,71,0.00,,,0.00,Wunderground v.1.15,2015-05-26 21:46:00,
2015-05-26 14:52:00,65.0,55.4,30.02,NW,323,2.0,2.0,71,0.00,,,0.00,Wunderground v.1.15,2015-05-26 21:52:00,
2015-05-26 15:06:00,65.7,55.6,30.02,NNW,328,0.0,2.0,70,0.00,,,0.00,Wunderground v.1.15,2015-05-26 22:06:00,
2015-05-26 15:12:00,65.7,55.6,30.02,North,5,1.0,4.0,70,0.00,,,0.00,Wunderground v.1.15,2015-05-26 22:12:00,
2015-05-26 15:18:00,65.2,55.6,30.02,WNW,294,3.0,6.0,71,0.00,,,0.00,Wunderground v.1.15,2015-05-26 22:18:00,
2015-05-26 15:24:00,65.1,55.5,30.02,NW,321,3.0,3.0,71,0.00,,,0.00,Wunderground v.1.15,2015-05-26 22:24:00,
2015-05-26 15:30:00,65.4,56.1,30.02,WNW,301,1.0,1.0,72,0.00,,,0.00,Wunderground v.1.15,2015-05-26 22:30:00,
2015-05-26 15:36:00,65.4,55.4,30.02,NW,305,2.0,4.0,70,0.00,,,0.00,Wunderground v.1.15,2015-05-26 22:36:00,
2015-05-26 15:42:00,65.4,55.4,30.01,North,5,3.0,3.0,70,0.00,,,0.00,Wunderground v.1.15,2015-05-26 22:42:00,
2015-05-26 15:48:00,65.5,55.5,30.02,NNW,330,3.0,4.0,70,0.00,,,0.00,Wunderground v.1.15,2015-05-26 22:48:00,
2015-05-26 15:55:00,65.8,55.7,30.02,NW,304,3.0,6.0,70,0.00,,,0.00,Wunderground v.1.15,2015-05-26 22:55:00,
2015-05-26 16:02:00,66.2,55.3,30.01,NW,319,2.0,8.0,68,0.00,,,0.00,Wunderground v.1.15,2015-05-26 23:02:00,
2015-05-26 16:08:00,66.7,55.4,30.02,NW,312,2.0,8.0,67,0.00,,,0.00,Wunderground v.1.15,2015-05-26 23:08:00,
2015-05-26 16:16:00,67.2,55.0,30.02,NW,307,1.0,2.0,65,0.00,,,0.00,Wunderground v.1.15,2015-05-26 23:16:00,
2015-05-26 16:22:00,67.6,56.7,30.01,NNE,13,2.0,3.0,68,0.00,,,0.00,Wunderground v.1.15,2015-05-26 23:22:00,
2015-05-26 16:28:00,68.1,55.5,30.01,West,273,2.0,6.0,64,0.00,,,0.00,Wunderground v.1.15,2015-05-26 23:28:00,
2015-05-26 16:34:00,68.6,55.1,30.01,NNW,330,3.0,7.0,62,0.00,,,0.00,Wunderground v.1.15,2015-05-26 23:34:00,
2015-05-26 16:40:00,68.3,54.8,30.01,NW,315,2.0,3.0,62,0.00,,,0.00,Wunderground v.1.15,2015-05-26 23:40:00,
2015-05-26 16:46:00,68.5,55.0,30.00,NNW,345,2.0,3.0,62,0.00,,,0.00,Wunderground v.1.15,2015-05-26 23:46:00,
2015-05-26 16:52:00,68.4,54.9,30.00,NE,39,2.0,2.0,62,0.00,,,0.00,Wunderground v.1.15,2015-05-26 23:52:00,
2015-05-26 16:58:00,68.9,54.0,30.01,NW,319,2.0,5.0,59,0.00,,,0.00,Wunderground v.1.15,2015-05-26 23:58:00,
2015-05-26 17:04:00,68.7,53.3,30.00,NW,310,2.0,5.0,58,0.00,,,0.00,Wunderground v.1.15,2015-05-27 00:04:00,
2015-05-26 17:10:00,69.4,55.4,30.00,WNW,287,1.0,1.0,61,0.00,,,0.00,Wunderground v.1.15,2015-05-27 00:10:00,
2015-05-26 17:16:00,68.9,54.9,30.00,NW,323,1.0,1.0,61,0.00,,,0.00,Wunderground v.1.15,2015-05-27 00:16:00,
2015-05-26 17:22:00,68.6,54.6,30.00,NW,314,2.0,5.0,61,0.00,,,0.00,Wunderground v.1.15,2015-05-27 00:22:00,
2015-05-26 17:34:00,68.1,54.6,30.00,North,352,3.0,4.0,62,0.00,,,0.00,Wunderground v.1.15,2015-05-27 00:34:00,
2015-05-26 17:39:00,68.4,55.3,30.00,WNW,300,3.0,3.0,63,0.00,,,0.00,Wunderground v.1.15,2015-05-27 00:39:00,
2015-05-26 17:46:00,68.8,54.8,29.99,WNW,289,2.0,5.0,61,0.00,,,0.00,Wunderground v.1.15,2015-05-27 00:46:00,
2015-05-26 17:52:00,68.5,55.4,29.99,NNE,15,1.0,2.0,63,0.00,,,0.00,Wunderground v.1.15,2015-05-27 00:52:00,
2015-05-26 17:58:00,68.7,56.0,29.99,SW,218,1.0,2.0,64,0.00,,,0.00,Wunderground v.1.15,2015-05-27 00:58:00,
2015-05-26 18:10:00,68.6,55.5,29.99,NNW,331,3.0,3.0,63,0.00,,,0.00,Wunderground v.1.15,2015-05-27 01:10:00,
2015-05-26 18:16:00,69.2,56.1,29.99,WSW,254,1.0,3.0,63,0.00,,,0.00,Wunderground v.1.15,2015-05-27 01:16:00,
2015-05-26 18:22:00,69.4,56.3,29.99,NW,316,1.0,4.0,63,0.00,,,0.00,Wunderground v.1.15,2015-05-27 01:22:00,
2015-05-26 18:28:00,69.7,56.5,29.99,NW,319,1.0,4.0,63,0.00,,,0.00,Wunderground v.1.15,2015-05-27 01:28:00,
2015-05-26 18:36:00,69.6,56.9,29.99,West,263,1.0,1.0,64,0.00,,,0.00,Wunderground v.1.15,2015-05-27 01:36:00,
2015-05-26 18:41:00,68.9,56.2,29.99,WNW,301,0.0,0.0,64,0.00,,,0.00,Wunderground v.1.15,2015-05-27 01:41:00,
2015-05-26 18:48:00,68.5,55.8,29.99,NW,324,0.0,0.0,64,0.00,,,0.00,Wunderground v.1.15,2015-05-27 01:48:00,
2015-05-26 18:54:00,68.1,55.0,29.99,NW,318,0.0,0.0,63,0.00,,,0.00,Wunderground v.1.15,2015-05-27 01:54:00,
2015-05-26 19:00:00,67.8,55.2,29.99,NNW,336,0.0,0.0,64,0.00,,,0.00,Wunderground v.1.15,2015-05-27 02:00:00,
2015-05-26 19:06:00,67.7,55.1,29.99,NW,326,0.0,0.0,64,0.00,,,0.00,Wunderground v.1.15,2015-05-27 02:06:00,
2015-05-26 19:12:00,67.6,55.8,29.99,WNW,295,0.0,0.0,66,0.00,,,0.00,Wunderground v.1.15,2015-05-27 02:12:00,
2015-05-26 19:18:00,67.4,55.6,29.99,NW,305,0.0,0.0,66,0.00,,,0.00,Wunderground v.1.15,2015-05-27 02:18:00,
2015-05-26 19:26:00,67.1,55.8,29.99,WNW,290,0.0,0.0,67,0.00,,,0.00,Wunderground v.1.15,2015-05-27 02:26:00,
2015-05-26 19:32:00,66.9,55.6,29.99,NW,314,0.0,0.0,67,0.00,,,0.00,Wunderground v.1.15,2015-05-27 02:32:00,
2015-05-26 19:38:00,66.7,55.8,29.99,WNW,290,0.0,0.0,68,0.00,,,0.00,Wunderground v.1.15,2015-05-27 02:38:00,
2015-05-26 19:45:00,66.4,55.9,29.99,NW,307,0.0,0.0,69,0.00,,,0.00,Wunderground v.1.15,2015-05-27 02:45:00,
2015-05-26 19:51:00,66.4,55.9,29.99,WNW,297,0.0,0.0,69,0.00,,,0.00,Wunderground v.1.15,2015-05-27 02:51:00,
2015-05-26 19:58:00,66.3,55.8,29.99,NW,323,0.0,0.0,69,0.00,,,0.00,Wunderground v.1.15,2015-05-27 02:58:00,
2015-05-26 20:05:00,66.1,56.0,29.99,NW,313,0.0,0.0,70,0.00,,,0.00,Wunderground v.1.15,2015-05-27 03:05:00,
2015-05-26 20:12:00,65.9,56.2,29.99,WNW,302,0.0,0.0,71,0.00,,,0.00,Wunderground v.1.15,2015-05-27 03:12:00,
2015-05-26 20:18:00,65.7,56.4,29.99,West,259,0.0,0.0,72,0.00,,,0.00,Wunderground v.1.15,2015-05-27 03:18:00,
2015-05-26 20:24:00,65.4,56.5,29.99,WSW,243,0.0,0.0,73,0.00,,,0.00,Wunderground v.1.15,2015-05-27 03:24:00,
2015-05-26 20:30:00,65.0,56.5,29.99,WSW,256,0.0,0.0,74,0.00,,,0.00,Wunderground v.1.15,2015-05-27 03:30:00,
2015-05-26 20:36:00,64.7,56.2,29.99,WNW,287,0.0,0.0,74,0.00,,,0.00,Wunderground v.1.15,2015-05-27 03:36:00,
2015-05-26 20:42:00,64.4,56.3,29.99,West,278,0.0,0.0,75,0.00,,,0.00,Wunderground v.1.15,2015-05-27 03:42:00,
2015-05-26 20:48:00,64.1,56.0,29.99,West,269,0.0,0.0,75,0.00,,,0.00,Wunderground v.1.15,2015-05-27 03:48:00,
2015-05-26 20:56:00,63.8,56.1,30.00,WSW,256,0.0,0.0,76,0.00,,,0.00,Wunderground v.1.15,2015-05-27 03:56:00,
2015-05-26 21:02:00,63.7,56.0,30.00,WSW,252,0.0,0.0,76,0.00,,,0.00,Wunderground v.1.15,2015-05-27 04:02:00,
2015-05-26 21:08:00,63.5,55.8,30.00,WSW,251,0.0,0.0,76,0.00,,,0.00,Wunderground v.1.15,2015-05-27 04:08:00,
2015-05-26 21:16:00,63.3,56.0,30.00,WSW,251,0.0,0.0,77,0.00,,,0.00,Wunderground v.1.15,2015-05-27 04:16:00,
2015-05-26 21:22:00,63.2,55.9,30.00,WSW,252,0.0,0.0,77,0.00,,,0.00,Wunderground v.1.15,2015-05-27 04:22:00,
2015-05-26 21:28:00,63.1,55.8,30.00,WSW,252,0.0,0.0,77,0.00,,,0.00,Wunderground v.1.15,2015-05-27 04:28:00,
2015-05-26 21:36:00,62.8,55.8,30.00,WSW,252,0.0,0.0,78,0.00,,,0.00,Wunderground v.1.15,2015-05-27 04:36:00,
2015-05-26 21:42:00,62.7,56.1,30.01,NE,35,0.0,0.0,79,0.00,,,0.00,Wunderground v.1.15,2015-05-27 04:42:00,
2015-05-26 21:48:00,62.4,56.1,30.01,NE,36,0.0,0.0,80,0.00,,,0.00,Wunderground v.1.15,2015-05-27 04:48:00,
2015-05-26 21:56:00,62.1,56.2,30.01,ENE,62,0.0,0.0,81,0.00,,,0.00,Wunderground v.1.15,2015-05-27 04:56:00,
2015-05-26 22:02:00,61.8,56.2,30.01,ENE,62,0.0,0.0,82,0.00,,,0.00,Wunderground v.1.15,2015-05-27 05:02:00,
2015-05-26 22:07:00,61.6,55.7,30.01,ENE,62,0.0,0.0,81,0.00,,,0.00,Wunderground v.1.15,2015-05-27 05:07:00,
2015-05-26 22:14:00,61.6,55.7,30.01,ENE,62,0.0,0.0,81,0.00,,,0.00,Wunderground v.1.15,2015-05-27 05:14:00,
2015-05-26 22:20:00,61.3,55.8,30.01,ENE,63,0.0,0.0,82,0.00,,,0.00,Wunderground v.1.15,2015-05-27 05:20:00,
2015-05-26 22:26:00,61.0,55.8,30.01,ENE,62,0.0,0.0,83,0.00,,,0.00,Wunderground v.1.15,2015-05-27 05:26:00,
2015-05-26 22:32:00,60.7,55.5,30.01,ENE,63,0.0,0.0,83,0.00,,,0.00,Wunderground v.1.15,2015-05-27 05:32:00,
2015-05-26 22:38:00,60.3,55.1,30.02,North,352,0.0,0.0,83,0.00,,,0.00,Wunderground v.1.15,2015-05-27 05:38:00,
2015-05-26 22:45:00,59.9,54.7,30.02,NNW,330,0.0,0.0,83,0.00,,,0.00,Wunderground v.1.15,2015-05-27 05:45:00,
2015-05-26 22:52:00,59.6,54.8,30.02,NW,314,0.0,0.0,84,0.00,,,0.00,Wunderground v.1.15,2015-05-27 05:52:00,
2015-05-26 22:58:00,59.1,53.9,30.02,ENE,65,0.0,0.0,83,0.00,,,0.00,Wunderground v.1.15,2015-05-27 05:58:00,